Погода в Селитьбе

Россия / Нижегородская область     55°47′03″N   43°29′12″E
темп.,
°C
ветер,
м/с
пор.,
м/с
влажн.,
%
обл.,
%
осадки,
мм/ч
давл.,
гПа
погр.,
м
21 апреля, ср
ср2100:00+5вюв71676100 0.7 10171060
03:00+3вюв92093100 11.3 10131128
06:00+4юв91988100 2.4 10111091
09:00+6юв9188274 2.4 1010898
12:00+8ююв81578100 0.2 10101117
15:00+7ююв71585100 0.2 1010820
18:00+7ююв61389100 0.8 1010760
21:00+6юз4796100 4.1 1012568
22 апреля, чт
чт2200:00+4юз4990100 0.9 1014824
03:00+4ююз4988100 0.9 1016581
06:00+4ю379299 0.0 1017386
09:00+5ююз2593100 1.2 1018756
12:00+5юз379398 1.0 1019512
15:00+10юз466479 1.1 10201305
18:00+9ююз387379 0.1 1020447
21:00+7ю3882100 0.1 1021169
23 апреля, пт
пт2300:00+6ююв41081100 0.0 1021250
03:00+6ююв31182100 0.0 1021313
06:00+7ююв41183100 0.0 1021295
09:00+11ю596781 0.0 1021508
12:00+15ю575282 0.1 10201364
15:00+14ю3655100 0.3 1019400
18:00+13юв246687 0.0 101999
21:00+11ююв31070100 0.0 1019298
24 апреля, сб
сб2400:00+10юв3107699 0.0 1017257
03:00+8юв398720 0.1 1016197
06:00+8юв4119038 0.1 1015358
09:00+10юв51081100 0.5 1014778
12:00+9ю2686100 1.8 1012371
15:00+13юв5860100 2.0 10081434
18:00+11юв51169100 0.6 1006667
21:00+8ю5992100 4.6 1004824
25 апреля, вс
вс2500:00+5юз61087100 6.8 1006966
03:00+2юз412895 6.8 1007657
06:00+3ююз411905 0.0 1008545
09:00+6юз69655 0.0 10081223
12:00+8юз71050100 0.3 10082296
15:00+8зюз6105853 1.3 10101936
18:00+7зюз48645 0.3 10101388
21:00+3ююз37811 0.4 1012129